Weather History for Ogden Hill AFB, UT

Change the Weather History Date:

Wednesday, October 26, 2011

  Actual Average Record
Temperature  
Mean Temperature 40 °F -  
Max Temperature 47 °F 51 °F 69 °F (1999)
Min Temperature 33 °F 35 °F 24 °F (2012)
Degree Days  
Heating Degree Days 25    
Moisture  
Dew Point 19 °F    
Average Humidity 44    
Maximum Humidity 59    
Minimum Humidity 28    
Precipitation  
Precipitation 0.00 in - - ()
Sea Level Pressure  
Sea Level Pressure 30.18 in    
Wind  
Wind Speed 8 mph (NW)    
Max Wind Speed 16 mph    
Max Gust Speed 21 mph    
Visibility 10 miles    
Events      
Averages and records for this station are not official NWS values.
T = Trace of Precipitation, MM = Missing Value Source: NWS Daily Summary

Daily Weather History Graph

Daily Weather History Graph

Search for Another Location

Airport:

Trip Planner

Search our weather history database for the weather conditions in past years. The results will help you decide how hot, cold, wet, or windy it might be!

Date:

Astronomy

Oct. 26, 2011 Rise Set
Actual Time 7:51 AM MDT 6:31 PM MDT
Civil Twilight 7:23 AM MDT 6:59 PM MDT
Nautical Twilight 6:51 AM MDT 7:31 PM MDT
Astronomical Twilight 6:19 AM MDT 8:03 PM MDT
Moon 7:44 AM MDT (10/26) 6:15 PM MDT (10/26)
Length of Visible Light 11h 36m
Length of Day
10h 39m
Waning Crescent, 0% of the Moon is Illuminated
Oct 26
Waning Crescent
Oct 26
New
Nov 2
First Quarter
Nov 10
Full
Nov 18
Last Quarter

Hourly Weather History & Observations

Time (MDT) Temp. Windchill Dew Point Humidity Pressure Visibility Wind Dir Wind Speed Gust Speed Precip Events Conditions
12:55 AM 39.7 °F 31.5 °F 21.0 °F 47% 30.09 in 10.0 mi East 15.0 mph - N/A   Clear
1:55 AM 36.0 °F 28.0 °F 22.8 °F 59% 30.08 in 10.0 mi WSW 11.5 mph - N/A   Clear
2:55 AM 36.0 °F 33.3 °F 21.2 °F 55% 30.08 in 10.0 mi West 3.5 mph - N/A   Clear
3:55 AM 34.9 °F 29.0 °F 21.4 °F 58% 30.10 in 10.0 mi West 6.9 mph - N/A   Clear
4:55 AM 33.4 °F 30.4 °F 20.5 °F 59% 30.10 in 10.0 mi SSW 3.5 mph - N/A   Clear
5:55 AM 34.7 °F 30.6 °F 19.4 °F 54% 30.11 in 10.0 mi NE 4.6 mph - N/A   Clear
6:55 AM 35.1 °F 28.6 °F 19.2 °F 53% 30.14 in 10.0 mi NE 8.1 mph - N/A   Clear
7:55 AM 35.1 °F 29.3 °F 18.5 °F 51% 30.15 in 10.0 mi North 6.9 mph 16.1 mph N/A   Clear
8:55 AM 36.1 °F 33.5 °F 19.8 °F 51% 30.17 in 10.0 mi NE 3.5 mph - N/A   Clear
9:51 AM 39.2 °F - 21.2 °F 49% 30.20 in 10.0 mi Calm Calm - N/A   Clear
9:53 AM 39.2 °F - 21.2 °F 49% 30.21 in 10.0 mi Calm Calm - N/A   Clear
9:55 AM 38.7 °F - 20.7 °F 48% 30.20 in 10.0 mi Calm Calm - N/A   Clear
10:55 AM 41.7 °F 35.6 °F 20.7 °F 43% 30.20 in 10.0 mi West 10.4 mph - 0.00 in   Clear
11:34 AM 41.7 °F 35.6 °F 20.7 °F 43% 30.60 in 10.0 mi West 10.4 mph - N/A   Clear
11:55 AM 43.9 °F - 21.4 °F 41% 30.19 in 10.0 mi Calm Calm - N/A   Partly Cloudy
12:55 PM 43.2 °F 37.9 °F 18.9 °F 38% 30.19 in 10.0 mi WNW 9.2 mph - N/A   Partly Cloudy
1:55 PM 45.1 °F 38.1 °F 19.8 °F 36% 30.17 in 10.0 mi West 16.1 mph 20.7 mph N/A   Clear
2:55 PM 46.2 °F 40.1 °F 18.7 °F 33% 30.16 in 10.0 mi West 13.8 mph - N/A   Clear
3:55 PM 47.3 °F - 18.3 °F 32% 30.15 in 10.0 mi WNW 12.7 mph - N/A   Clear
4:55 PM 46.4 °F 40.7 °F 14.9 °F 28% 30.16 in 10.0 mi NW 12.7 mph - N/A   Clear
5:55 PM 44.6 °F 39.2 °F 14.2 °F 29% 30.16 in 10.0 mi West 10.4 mph - N/A   Clear
6:55 PM 41.5 °F 37.1 °F 13.5 °F 32% 30.18 in 10.0 mi WNW 6.9 mph - N/A   Clear
7:55 PM 40.1 °F 36.1 °F 12.6 °F 33% 30.19 in 10.0 mi WNW 5.8 mph - N/A   Clear
8:55 PM 37.8 °F 35.3 °F 15.3 °F 40% 30.20 in 10.0 mi ENE 3.5 mph - N/A   Clear
9:55 PM 36.1 °F 32.3 °F 17.4 °F 47% 30.22 in 10.0 mi NW 4.6 mph - N/A   Clear
10:55 PM 33.8 °F 25.3 °F 15.1 °F 46% 30.22 in 10.0 mi East 11.5 mph - N/A   Clear
11:55 PM 35.1 °F 27.4 °F 13.1 °F 40% 30.21 in 10.0 mi ENE 10.4 mph - N/A   Clear